Погода в Кузьмовке

Погода в Кузьмовке : погода сейчас, прогноз погоды и архив. Всё, что Вы хотите узнать о погоде в Кузьмовке!

Поиск расширенной информации на нашем сайте:

Другие новости

Новости СМИ2

Главная страница сайта

Новости сайта

02.10.2013

Напоминаем, что на нашем новом сайте вы можете получить высокодетализированные прогнозы погоды по пунктам России, СНГ и мира (включающие важные для авиации метеовеличины, такие как направление и скорость ветра, видимость, явления погоды, количество и форма облачности, нижняя и верхняя граница облачности), а также ознакомиться с разнообразными материалами по авиационной метеорологии и подборкой полезных ссылок на эту тему.

Сайт Метеоцентр.Азия посвящён разработке технологий оптимизации авиаметеорологического обслуживания, включая проектирование и перспективное создание нескольких автоматизированных авиаметеорологических систем:
- система выпуска высокодетальных прогностических карт явлений погоды для нижнего воздушного пространства по России и ближнему зарубежью;
- система верификации прогнозов TAF (выпускаемых синоптиками официальных АМСГ РФ и ближнего зарубежья) и AUTOTAF (выпускаемых сайтом Метеоцентр.Азия) - выявление ошибок, онлайн-сопоставление с фактической погодой METAR, автоматическое внесение коррективов в прогнозы при резком отклонении фактической погоды от прогноза, подсчёт оправдываемости прогнозов по элементам и в целом;
- система обработки, анализа и отображения авиаметеорологической информации для применения провайдерами метеорологической информации.

Рекомендуем: Комплексные системы безопасности и слаботочные сети читать дальше.

Погода в Кузьмовке - сегодня

Время (UTC), дата Ветер
(°,м/с) 
Видим.   Явления Облачность Т
(°С)
Тd
(°С)
f(%) Тe
(°С)
Pmin
(гПа)
dP
(гПа)
Po
(мм)
O2
(г/м3)
Тmin Tmax R s Состояние
почвы
03 26.05.17 180 (Ю) 20000 м    9/9 600 м 
[Cu med, cong]
+7 +2.9 75 +8  1007.4  0.1  750  294           
06 26.05.17 270 (З) 20000 м    8/8 600 м 
[Cu med, cong]
+7.7 -4.9 40 +8  1007.4  750  294           
09 26.05.17 270 (З) 20000 м    8/8 600 м 
[Sc]
+8.5 -6.6 34 +9  1008.3  751  294           
12 26.05.17 360 (С) 20000 м    9/4 600 м верхняя 
[Cu hum|Ci sp]
+9.3 -4.7 37 +10  1009.8  9.5  752  293    +9.8       
15 26.05.17 340 (С) 20000 м    8/0 верхняя 
[Ci sp]
+6.9 -3.8 46 +8  1011.7  1.8  753  296           
18 26.05.17 090 (В) 20000 м    10/6 600 м верхняя 
[Sc|Cs]
-0.6 -2.4 88 1013.3  1.3  754  305           
21 26.05.17 090 (В) 20000 м    10/10 600 м 
[Sc]
+2.8 -1.1 75 +4  1015.8  2.5  756  302           
00 27.05.17 090 (В) 20000 м    10/10 600 м кучево-дожд. 
[Cb cap]
+1.8 -1.6 78 +1  1018.4  2.6  758  304  -0.6         
03 27.05.17 270 (З) 20000 м    8/8 600 м 
[Sc]
+3.2 -3.9 60 +3  1020.5  2.1  760  303           
06 27.05.17 320 (СЗ) 20000 м    8/8 600 м 
[Cu med, cong]
+6.1 -6.4 40 +6  1021.1  0.7  760  300           
09 27.05.17 320 (СЗ) 20000 м    10/3 600 м верхняя 
[Cu hum|Cs]
+8.2 -5.8 36 +8  1020.3  -0.7  760  298           
12 27.05.17 270 (З) 20000 м    10/10 2000 м 
[As trans]
+7.9 -6.8 34 +8  1019.5  -0.8  759  298    +9       
15 27.05.17 180 (Ю) 20000 м    10/10 2000 м 
[As trans]
+5.4 -0.1 68 +6  1019.4  -0.2  759  300           
18 27.05.17 120 (ЮВ) 10 км  слаб. дождь  10/10 2000 м 
[Ns]
+2.9 +2.1 94 +4  1018.6  -0.9  758  302           
21 27.05.17 090 (В) 10 км  слаб. ливневой дождь  10/10 600 м кучево-дожд. 
[Cb cap]
+2.1 +1.8 98 +3  1017.3  -1.3  757  302           
00 28.05.17 090 (В) 20000 м  {ливн. осадки, дождь}  10/10 600 м кучево-дожд. 
[Cb cap]
+3.2 +2.7 97 +4  1017.1  -0.1  757  301  +2.1       
03 28.05.17 180 (Ю) 20000 м    10/10 600 м кучево-дожд. 
[Cb cap]
+5.6 +3.7 88 +6  1017.1  757  298           
06 28.05.17 180 (Ю) 20000 м    8/8 600 м 
[Sc]
+9.3 +3.3 66 +9  1016.3  -0.7  757  294           
09 28.05.17 180 (Ю) 20000 м    3/1 600 м верхняя 
[Cu hum|Ci fib]
+12.3 +3.6 55 +13  1014.6  -1.6  755  291           
12 28.05.17 180 (Ю) 20000 м    8/0 верхняя 
[Ci sp]
+13.6 +3.4 50 +15  1013.6  -1  755  289    +13.6       
15 28.05.17 090 (В) 20000 м    8/0 верхняя 
[Ci sp]
+6.6 +3.3 79 +8  1013  -0.8  754  296           
21 28.05.17 090 (В) 20000 м    8/8 2000 м средняя 
[Ac trans]
+0.8 +0 94 +1  1011.9  -0.7  753  303           
00 29.05.17 180 (Ю) 20000 м    10/10 600 м 
[Sc]
+4.5 +3 90 +5  1011  -0.8  752  298  +0.6         
03 29.05.17 270 (З) 20000 м    9/0 верхняя 
[Ci sp]
+12.4 +4.5 59 +14  1008.4  -2.3  751  289           
06 29.05.17 120 (ЮВ) 20000 м    9/0 верхняя 
[Ci sp]
+19.2 +4.5 38 +21  1006.3  -1  749  281           
Время (UTC), дата Ветер
(°,м/с) 
Видим.   Явления Облачность Т
(°С)
Тd
(°С)
f(%) Тe
(°С)
Pmin
(гПа)
dP
(гПа)
Po
(мм)
O2
(г/м3)
Тmin Tmax R s Состояние
почвы

Для получения пояснительной информации подведите курсор к названию столбца.

ПОГОДА в Кузьмовке - архив

Всё, что Вы хотите узнать о погоде в Кузьмовке - удобно и подробно!

Выберите нужную дату (начиная с 1 января 2015* года) и нажмите кнопку "Найти".
Будут отображены архивные сводки погоды по пункту Кузьмовка, начиная с указанной даты.


Отображать данные в формате CSV (для использования в таблицах Excel)


Внимание! Наш архив погоды предназначен исключительно для личного некоммерческого использования в познавательных целях. Если Вам необходимы официальные справки о состоянии погоды (для производственных, юридических, коммерческих и т.п. целей), обращайтесь в органы Росгидромета.

*Примечание: данная дата относится к архиву по метеостанциям СССР (Россия, СНГ, Балтия).
Архив по метеостанциям Зарубежной Европы и Азии (кроме Китая) хранится 10 дней, по другим регионам земного шара (Китай, Африка, Америка, Австралия, Океания) - 1 день.

Кузьмовка - район местоположения метеостанции


Название, широта, долгота, высота метеостанции:
Кузьмовка 62.3°ш. 92.1°д. 60 м над ур. моря [Российская Федерация]

Дополнительная информация

В oтличие oт бoльшинства пoгoдных сайтoв мы публикуем пoдрoбную метеoинфoрмацию в детальнoм прoфессиoнальнoм фoрмате.

Характеристики температуры и влажнoсти вoздуха измеряются на высoте 2 м в тени вдали oт зданий и деревьев.
Скoрoсть ветра измеряется на высoте 10 м (на урoвне рoста челoвека скoрoсть ветра ниже в 1.5-2 раза). Если метеoстанция нахoдится в гoрoде или в лесу, тo скoрoсть ветра занижена на 2-4 м/с пo сравнению с oткрытым местoм. Скoрoсть ветра над акватoриями крупных рек и oзёр, а также на вершинах хoлмoв на 2-5 м/с выше, чем в oбычных услoвиях.
Атмoсфернoе давление в разных тoчках местнoсти мoжет значительнo oтличаться oт давления на метеoстанции, в зависимoсти oт услoвий рельефа (при пoдъёме на 10 м давление пoнижается примернo на 1 мм рт.ст.).